Location: Kielce
(50.8833°N, 20.6167°E)
Time: 21:38:32
(UTC+02:00)

SR - Pass Details

Date: 26 April 2021
Orbit: 573 x 882 km, 66.7° (Epoch: 09 May)

Event Time Altitude Azimuth Distance (km) Brightness Sun altitude
Rises 12:11:37 0° 314° (NW) 3,491 ? 52.5°
Reaches altitude 10° 12:14:49 10° 331° (NNW) 2,547 ? 52.5°
Maximum altitude 12:19:11 21° 18° (NNE) 1,876 ? 52.6°
Drops below altitude 10° 12:23:27 10° 66° (ENE) 2,476 ? 52.7°
Sets 12:26:31 0° 83° (E) 3,366 ? 52.7°
